TimeEDT,TemperatureF,Dew PointF,Humidity,Sea Level PressureIn,VisibilityMPH,Wind Direction,Wind SpeedMPH,Gust SpeedMPH,PrecipitationIn,Events,Conditions,WindDirDegrees,DateUTC
12:15 AM,71.6,62.6,73,29.95,10.0,Calm,Calm,-,N/A,,Clear,0,2013-07-21 04:15:00
12:35 AM,71.6,62.6,73,29.95,10.0,Calm,Calm,-,N/A,,Clear,0,2013-07-21 04:35:00
12:55 AM,69.8,62.6,78,29.95,10.0,Calm,Calm,-,N/A,,Clear,0,2013-07-21 04:55:00
1:15 AM,69.8,62.6,78,29.95,10.0,Calm,Calm,-,N/A,,Clear,0,2013-07-21 05:15:00
1:35 AM,69.8,62.6,78,29.95,10.0,North,3.5,-,N/A,,Clear,360,2013-07-21 05:35:00
1:55 AM,69.8,62.6,78,29.95,10.0,Calm,Calm,-,N/A,,Scattered Clouds,0,2013-07-21 05:55:00
2:15 AM,69.8,62.6,78,29.95,10.0,Calm,Calm,-,N/A,,Scattered Clouds,0,2013-07-21 06:15:00
2:35 AM,68.0,62.6,83,29.95,10.0,Calm,Calm,-,N/A,,Clear,0,2013-07-21 06:35:00
2:55 AM,68.0,62.6,83,29.95,10.0,Calm,Calm,-,N/A,,Clear,0,2013-07-21 06:55:00
3:15 AM,68.0,62.6,83,29.95,10.0,Calm,Calm,-,N/A,,Clear,0,2013-07-21 07:15:00
3:35 AM,68.0,62.6,83,29.95,10.0,Calm,Calm,-,N/A,,Clear,0,2013-07-21 07:35:00
3:55 AM,66.2,62.6,88,29.96,10.0,Calm,Calm,-,N/A,,Mostly Cloudy,0,2013-07-21 07:55:00
4:15 AM,68.0,62.6,83,29.95,10.0,Calm,Calm,-,N/A,,Mostly Cloudy,0,2013-07-21 08:15:00
4:35 AM,68.0,62.6,83,29.95,10.0,Calm,Calm,-,N/A,,Scattered Clouds,0,2013-07-21 08:35:00
4:55 AM,66.2,62.6,88,29.96,10.0,Calm,Calm,-,N/A,,Scattered Clouds,0,2013-07-21 08:55:00
5:15 AM,66.2,62.6,88,29.95,10.0,Calm,Calm,-,N/A,,Clear,0,2013-07-21 09:15:00
5:35 AM,66.2,60.8,83,29.95,10.0,Calm,Calm,-,N/A,,Clear,0,2013-07-21 09:35:00
5:55 AM,66.2,60.8,83,29.96,10.0,Calm,Calm,-,N/A,,Clear,0,2013-07-21 09:55:00
6:15 AM,66.2,60.8,83,29.96,10.0,Calm,Calm,-,N/A,,Clear,0,2013-07-21 10:15:00
6:35 AM,66.2,60.8,83,29.97,10.0,Calm,Calm,-,N/A,,Clear,0,2013-07-21 10:35:00
6:55 AM,64.4,60.8,88,29.98,10.0,Calm,Calm,-,N/A,,Clear,0,2013-07-21 10:55:00
7:15 AM,64.4,60.8,88,29.99,10.0,Calm,Calm,-,N/A,,Scattered Clouds,0,2013-07-21 11:15:00
7:35 AM,66.2,62.6,88,29.98,10.0,ENE,3.5,-,N/A,,Scattered Clouds,70,2013-07-21 11:35:00
7:55 AM,68.0,62.6,83,29.98,10.0,ENE,4.6,-,N/A,,Clear,70,2013-07-21 11:55:00
8:15 AM,69.8,62.6,78,29.99,10.0,ENE,4.6,-,N/A,,Clear,60,2013-07-21 12:15:00
8:35 AM,69.8,64.4,83,30.00,10.0,ENE,4.6,-,N/A,,Clear,60,2013-07-21 12:35:00
8:55 AM,71.6,64.4,78,30.00,10.0,ENE,6.9,-,N/A,,Clear,60,2013-07-21 12:55:00
9:15 AM,71.6,64.4,78,30.00,10.0,East,4.6,-,N/A,,Clear,80,2013-07-21 13:15:00
9:35 AM,73.4,66.2,78,30.00,10.0,East,4.6,-,N/A,,Clear,80,2013-07-21 13:35:00
9:55 AM,73.4,66.2,78,30.01,10.0,ENE,6.9,-,N/A,,Clear,70,2013-07-21 13:55:00
10:15 AM,75.2,66.2,73,30.01,10.0,ENE,4.6,-,N/A,,Clear,70,2013-07-21 14:15:00
10:35 AM,77.0,66.2,69,30.01,10.0,ENE,6.9,-,N/A,,Clear,70,2013-07-21 14:35:00
10:55 AM,77.0,66.2,69,30.01,10.0,East,8.1,-,N/A,,Clear,100,2013-07-21 14:55:00
11:15 AM,78.8,64.4,61,30.01,10.0,East,4.6,-,N/A,,Clear,90,2013-07-21 15:15:00
11:35 AM,78.8,64.4,61,30.01,10.0,East,4.6,-,N/A,,Clear,80,2013-07-21 15:35:00
11:55 AM,80.6,62.6,54,30.01,10.0,East,3.5,-,N/A,,Clear,100,2013-07-21 15:55:00
12:15 PM,80.6,64.4,58,30.01,10.0,SE,3.5,-,N/A,,Clear,130,2013-07-21 16:15:00
12:35 PM,82.4,62.6,51,30.00,10.0,ENE,6.9,-,N/A,,Clear,60,2013-07-21 16:35:00
12:55 PM,82.4,62.6,51,30.00,10.0,Calm,Calm,-,N/A,,Clear,0,2013-07-21 16:55:00
1:15 PM,82.4,60.8,48,30.00,10.0,Calm,Calm,-,N/A,,Clear,0,2013-07-21 17:15:00
2:15 PM,82.4,62.6,51,29.99,10.0,East,4.6,-,N/A,,Clear,90,2013-07-21 18:15:00
2:35 PM,82.4,60.8,48,29.99,10.0,East,3.5,-,N/A,,Clear,100,2013-07-21 18:35:00
2:55 PM,84.2,62.6,48,29.99,10.0,ESE,3.5,-,N/A,,Scattered Clouds,110,2013-07-21 18:55:00
3:15 PM,84.2,60.8,45,29.98,10.0,SSW,3.5,-,N/A,,Scattered Clouds,200,2013-07-21 19:15:00
3:35 PM,86.0,62.6,45,29.97,10.0,East,3.5,-,N/A,,Scattered Clouds,90,2013-07-21 19:35:00
3:55 PM,86.0,60.8,43,29.97,10.0,ESE,3.5,-,N/A,,Mostly Cloudy,110,2013-07-21 19:55:00
4:15 PM,86.0,62.6,45,29.96,10.0,East,4.6,-,N/A,,Scattered Clouds,80,2013-07-21 20:15:00
4:35 PM,86.0,62.6,45,29.95,10.0,SSE,3.5,-,N/A,,Scattered Clouds,160,2013-07-21 20:35:00
4:55 PM,86.0,60.8,43,29.95,10.0,ESE,3.5,-,N/A,,Clear,110,2013-07-21 20:55:00
5:15 PM,84.2,62.6,48,29.94,10.0,ESE,4.6,-,N/A,,Clear,120,2013-07-21 21:15:00
5:35 PM,82.4,62.6,51,29.93,10.0,Calm,Calm,-,N/A,,Clear,0,2013-07-21 21:35:00
5:55 PM,82.4,62.6,51,29.93,10.0,Calm,Calm,-,N/A,,Clear,0,2013-07-21 21:55:00
6:15 PM,82.4,62.6,51,29.93,10.0,East,4.6,-,N/A,,Clear,100,2013-07-21 22:15:00
6:35 PM,80.6,62.6,54,29.92,10.0,Calm,Calm,-,N/A,,Clear,0,2013-07-21 22:35:00
6:55 PM,80.6,64.4,58,29.92,10.0,Calm,Calm,-,N/A,,Clear,0,2013-07-21 22:55:00
7:15 PM,82.4,64.4,54,29.91,10.0,East,4.6,-,N/A,,Clear,90,2013-07-21 23:15:00
7:35 PM,82.4,64.4,54,29.92,10.0,East,3.5,-,N/A,,Clear,90,2013-07-21 23:35:00
7:55 PM,78.8,64.4,61,29.92,10.0,Calm,Calm,-,N/A,,Clear,0,2013-07-21 23:55:00
8:15 PM,78.8,64.4,61,29.92,10.0,Calm,Calm,-,N/A,,Clear,0,2013-07-22 00:15:00
8:35 PM,78.8,64.4,61,29.93,10.0,Calm,Calm,-,N/A,,Clear,0,2013-07-22 00:35:00
8:55 PM,78.8,66.2,65,29.93,10.0,Calm,Calm,-,N/A,,Clear,0,2013-07-22 00:55:00
9:15 PM,77.0,66.2,69,29.93,10.0,Calm,Calm,-,N/A,,Clear,0,2013-07-22 01:15:00
9:35 PM,77.0,66.2,69,29.94,10.0,Calm,Calm,-,N/A,,Clear,0,2013-07-22 01:35:00
9:55 PM,75.2,68.0,78,29.95,10.0,East,3.5,-,N/A,,Clear,90,2013-07-22 01:55:00
10:15 PM,77.0,64.4,65,29.95,10.0,East,4.6,-,N/A,,Clear,90,2013-07-22 02:15:00
10:35 PM,77.0,64.4,65,29.95,10.0,East,5.8,-,N/A,,Clear,100,2013-07-22 02:35:00
10:55 PM,75.2,64.4,69,29.95,10.0,East,4.6,-,N/A,,Clear,100,2013-07-22 02:55:00
11:15 PM,75.2,64.4,69,29.95,10.0,East,4.6,-,N/A,,Clear,100,2013-07-22 03:15:00
11:35 PM,75.2,64.4,69,29.95,10.0,East,5.8,-,N/A,,Clear,100,2013-07-22 03:35:00
11:55 PM,73.4,64.4,73,29.95,10.0,ESE,4.6,-,N/A,,Clear,110,2013-07-22 03:55:00